Stations météo

réclame
Mon MeteoGroup
Storlien-Visjovalen A, Suède (2207): Température de l'air & dewpoint: 08.08.2020 07:00:00 - 14.08.2020 07:00:00 (CEST)Storlien-Visjovalen A, Suède (2207): Vitesse du vent & gusts: 08.08.2020 07:00:00 - 14.08.2020 07:00:00 (CEST)Storlien-Visjovalen A, Suède (2207): Direction du vent: 08.08.2020 07:00:00 - 14.08.2020 07:00:00 (CEST)Storlien-Visjovalen A, Suède (2207): reduced air pressure: 08.08.2020 07:00:00 - 14.08.2020 07:00:00 (CEST)Storlien-Visjovalen A, Suède (2207): visibility: 08.08.2020 07:00:00 - 14.08.2020 07:00:00 (CEST)Storlien-Visjovalen A, Suède (2207): Quantités de précipitations: 08.08.2020 07:00:00 - 14.08.2020 07:00:00 (CEST)
Date & Time tt [°C] td [°C] ff [km/h] ff [knt] fx [km/h] fx [knt] dd ppp [hPa] vv [km] rr [mm]
14.08.2020 07:00:00 12,2 11,5 4 2 10 5 SW 1015,4 21 0,0
14.08.2020 06:00:00 11,9 11,4 7 4 15 8 W 1015,4 7 0,0
14.08.2020 05:00:00 12,1 11,5 6 3 17 9 WNW 1015,4 11 0,0
14.08.2020 04:00:00 12,5 11,9 9 5 18 10 W 1015,3 16 0,0
14.08.2020 03:00:00 12,9 12,4 5 3 11 6 WNW 1015,4 17 0,0
14.08.2020 02:00:00 13,0 12,5 5 3 15 8 NW 1015,3 16 0,0
14.08.2020 01:00:00 13,2 12,9 7 4 14 7 W 1015,7 8 0,0
14.08.2020 00:00:00 13,2 12,7 9 5 21 11 NW 1015,5 8 0,0
13.08.2020 23:00:00 13,4 13,1 8 4 14 7 NW 1014,9 7 0,0
13.08.2020 22:00:00 13,7 13,4 0 0 6 3 N 1015,1 3,6 0,0
13.08.2020 21:00:00 14,0 13,5 3 1 10 5 SSW 1015,0 4,2 0,0
13.08.2020 20:00:00 14,7 14,1 3 2 10 5 WNW 1014,7 12 0,0
13.08.2020 19:00:00 14,6 14,1 5 3 20 11 W 1014,6 12 1,3
13.08.2020 18:00:00 15,8 14,2 2 1 - - S 1014,0 17 0,1
13.08.2020 17:00:00 16,7 13,6 3 2 7 4 SE 1014,0 46 0,0
13.08.2020 16:00:00 17,0 13,3 2 1 6 3 ESE 1014,8 30 0,4
13.08.2020 15:00:00 14,2 12,9 3 2 16 9 WNW 1016,1 13 0,5
13.08.2020 14:00:00 17,1 11,4 6 3 12 6 NNW 1015,3 43 0,0
13.08.2020 13:00:00 18,1 11,4 3 2 9 5 W 1015,4 45 0,0
13.08.2020 12:00:00 17,9 10,3 6 3 17 9 N 1015,6 50 0,0
13.08.2020 11:00:00 19,1 9,3 9 5 18 10 WNW 1015,8 45 0,0
13.08.2020 10:00:00 18,4 8,9 5 3 11 6 SE 1016,2 50 0,0
13.08.2020 09:00:00 14,0 9,0 7 4 12 6 ESE 1017,2 50 0,0
13.08.2020 08:00:00 12,2 9,6 3 2 10 5 ESE 1017,9 50 0,0
13.08.2020 07:00:00 9,6 7,4 4 2 8 5 ESE 1019,0 50 0,0
13.08.2020 06:00:00 7,3 5,6 0 0 6 3 N 1019,9 50 0,0
13.08.2020 05:00:00 8,6 7,4 3 2 12 7 NW 1019,8 50 0,0
13.08.2020 04:00:00 8,2 6,2 3 2 10 5 WNW 1020,4 50 0,0
13.08.2020 03:00:00 7,0 5,9 4 2 10 6 NW 1021,0 50 0,0
13.08.2020 02:00:00 7,0 5,8 4 2 10 5 WNW 1021,5 50 0,0
13.08.2020 01:00:00 6,6 5,7 3 1 8 4 WSW 1022,0 50 0,0
13.08.2020 00:00:00 5,9 5,0 4 2 6 3 NW 1022,5 49 0,0
12.08.2020 23:00:00 7,2 6,1 0 0 4 2 N 1022,0 29 0,0
12.08.2020 22:00:00 9,0 7,0 3 2 5 3 WNW 1021,7 50 0,0
12.08.2020 21:00:00 12,9 7,8 3 2 11 6 NW 1020,7 50 0,0
12.08.2020 20:00:00 15,7 7,5 6 4 13 7 NW 1020,1 50 0,0
12.08.2020 19:00:00 16,7 7,1 10 6 19 10 NNW 1019,9 50 0,0
12.08.2020 18:00:00 17,2 6,1 11 6 21 11 NNW 1020,1 50 0,0
12.08.2020 17:00:00 17,6 6,5 11 6 25 14 NW 1020,4 50 0,0
12.08.2020 16:00:00 17,7 6,8 12 6 26 14 NNW 1020,5 50 0,0
12.08.2020 15:00:00 17,7 6,8 13 7 26 14 NW 1020,9 42 0,0
12.08.2020 14:00:00 16,5 6,6 13 7 25 13 NNW 1021,6 47 0,0
12.08.2020 13:00:00 16,4 7,9 10 6 21 11 NW 1022,0 49 0,0
12.08.2020 12:00:00 15,2 9,8 10 6 18 10 NNW 1022,3 43 0,0
12.08.2020 11:00:00 13,9 10,3 10 5 16 9 NNW 1022,8 43 0,0
12.08.2020 10:00:00 12,5 9,7 9 5 16 9 NNW 1023,2 50 0,0
12.08.2020 09:00:00 11,6 9,3 4 2 10 6 N 1023,5 50 0,0
12.08.2020 08:00:00 10,8 9,4 3 1 7 4 NNW 1023,9 50 0,0
12.08.2020 07:00:00 10,1 9,3 4 2 8 4 NNW 1024,5 39 0,0
12.08.2020 06:00:00 9,4 8,6 0 0 13 7 N 1024,9 35 0,0
12.08.2020 05:00:00 10,1 9,0 6 4 14 8 NW 1024,8 39 0,0
12.08.2020 04:00:00 9,9 8,8 4 2 10 5 WNW 1025,0 50 0,0
12.08.2020 03:00:00 10,4 8,8 3 2 6 4 W 1025,3 50 0,0
12.08.2020 02:00:00 10,2 8,5 0 0 6 3 N 1025,7 50 0,0
12.08.2020 01:00:00 11,8 9,5 0 0 5 3 N 1025,5 50 0,0
12.08.2020 00:00:00 12,3 9,9 4 2 8 4 NW 1025,4 50 0,0
11.08.2020 23:00:00 12,5 10,0 3 2 6 3 WNW 1025,2 50 0,0
11.08.2020 22:00:00 14,3 9,9 2 1 15 8 NW 1024,7 47 0,0
11.08.2020 21:00:00 15,3 9,9 8 5 16 9 NW 1024,5 50 0,0
11.08.2020 20:00:00 17,7 11,0 6 3 14 7 NW 1023,6 50 0,0
11.08.2020 19:00:00 18,3 10,4 4 2 13 7 NW 1023,8 50 0,0
11.08.2020 18:00:00 18,4 9,2 6 4 13 7 NW 1024,1 50 0,0
11.08.2020 17:00:00 18,5 10,3 6 3 18 10 NNW 1024,1 50 0,0
11.08.2020 16:00:00 19,7 8,7 10 5 24 13 NNW 1023,8 50 0,0
11.08.2020 15:00:00 19,0 5,8 11 6 26 14 NW 1024,0 50 0,0
11.08.2020 14:00:00 19,4 8,4 15 8 27 15 NW 1023,9 50 0,0
11.08.2020 13:00:00 20,6 8,9 11 6 22 12 NNW 1023,2 45 0,0
11.08.2020 12:00:00 20,7 9,6 8 5 21 11 W 1023,3 41 0,0
11.08.2020 11:00:00 20,4 11,6 4 2 13 7 NE 1022,9 41 0,0
11.08.2020 10:00:00 18,2 10,8 11 6 16 9 SE 1023,6 50 0,0
11.08.2020 09:00:00 14,4 9,2 3 2 7 4 SE 1025,0 50 0,0
11.08.2020 08:00:00 11,3 9,9 6 3 9 5 ESE 1025,9 50 0,0
11.08.2020 07:00:00 6,4 6,3 2 1 5 3 ESE 1027,4 39 0,0
11.08.2020 06:00:00 4,0 3,7 0 0 3 2 N 1028,1 0,3 0,0
11.08.2020 05:00:00 4,3 4,0 0 0 3 2 N 1028,2 23 0,0
11.08.2020 04:00:00 4,6 4,2 0 0 8 4 N 1028,3 25 0,0
11.08.2020 03:00:00 5,6 5,2 0 0 3 1 N 1027,8 48 0,0
11.08.2020 02:00:00 6,4 5,8 0 0 5 3 N 1027,5 34 0,0
11.08.2020 01:00:00 6,9 6,0 0 0 3 2 N 1027,2 41 0,0
11.08.2020 00:00:00 7,9 7,0 3 1 5 3 W 1026,7 50 0,0
10.08.2020 23:00:00 9,1 7,4 3 2 - - WSW 1026,1 50 0,0
10.08.2020 22:00:00 11,7 8,9 4 2 5 3 S 1025,1 33 0,0
10.08.2020 21:00:00 15,4 9,7 0 0 8 4 N 1023,7 50 0,0
10.08.2020 20:00:00 18,2 8,5 3 2 16 9 NE 1022,9 50 0,0
10.08.2020 19:00:00 20,3 6,3 9 5 14 7 NW 1022,0 50 0,0
10.08.2020 18:00:00 20,7 4,3 6 3 13 7 WNW 1021,9 50 0,0
10.08.2020 17:00:00 21,1 6,2 6 4 14 8 SSW 1021,9 50 0,0
10.08.2020 16:00:00 21,3 7,2 5 3 16 9 S 1022,0 46 0,0
10.08.2020 15:00:00 21,0 6,5 7 4 15 8 SE 1022,3 38 0,0
10.08.2020 14:00:00 20,3 6,3 6 3 18 10 SW 1022,7 47 0,0
10.08.2020 13:00:00 19,7 8,7 6 4 17 9 ESE 1023,0 46 0,0
10.08.2020 12:00:00 18,0 7,1 8 4 15 8 ESE 1023,7 43 0,0
10.08.2020 11:00:00 17,0 9,4 3 2 15 8 E 1023,9 48 0,0
10.08.2020 10:00:00 13,7 6,8 5 3 13 7 ESE 1025,1 48 0,0
10.08.2020 09:00:00 10,5 6,4 6 4 11 6 ESE 1026,2 50 0,0
10.08.2020 08:00:00 6,5 6,4 4 2 7 4 SSE 1027,5 50 0,0
10.08.2020 07:00:00 0,9 0,8 0 0 5 3 N 1029,3 - 0,0
10.08.2020 06:00:00 -0,4 -0,7 0 0 4 2 N 1029,8 0,4 0,0
10.08.2020 05:00:00 -1,0 -1,3 0 0 4 2 N 1030,2 3,9 0,0
10.08.2020 04:00:00 -0,4 -0,8 0 0 4 2 N 1030,1 24 0,0
10.08.2020 03:00:00 0,5 0,1 2 1 5 3 NW 1029,9 18 0,0
10.08.2020 02:00:00 1,3 0,9 0 0 4 2 N 1029,8 11 0,0
10.08.2020 01:00:00 1,6 0,9 3 1 3 2 WNW 1029,8 34 0,0
10.08.2020 00:00:00 3,2 2,5 0 0 5 3 N 1029,4 38 0,0
09.08.2020 23:00:00 4,5 3,5 4 2 6 3 WNW 1028,9 50 0,0
09.08.2020 22:00:00 7,5 5,3 3 2 4 2 NW 1028,0 50 0,0
09.08.2020 21:00:00 10,8 6,4 3 2 8 4 NW 1027,1 50 0,0
09.08.2020 20:00:00 12,3 5,7 6 3 13 7 NW 1026,7 50 0,0
09.08.2020 19:00:00 11,8 5,7 5 3 13 7 NW 1026,9 50 0,0
09.08.2020 18:00:00 12,8 5,0 4 2 12 7 N 1026,6 50 0,0
09.08.2020 17:00:00 12,7 5,4 6 3 16 9 N 1026,8 50 0,0
09.08.2020 16:00:00 12,1 5,9 6 4 18 10 N 1027,1 50 0,0
09.08.2020 15:00:00 11,9 6,0 10 5 22 12 NNW 1027,3 50 0,0
09.08.2020 14:00:00 11,4 6,3 13 7 24 13 NW 1027,4 50 0,0
09.08.2020 13:00:00 11,5 5,1 8 5 25 14 NW 1027,3 50 0,0
09.08.2020 12:00:00 11,4 5,5 9 5 16 9 NW 1027,1 48 0,0
09.08.2020 11:00:00 10,9 6,3 6 3 19 10 WNW 1027,3 47 0,0
09.08.2020 10:00:00 9,9 5,7 10 5 19 10 NW 1027,6 50 0,0
09.08.2020 09:00:00 9,5 6,8 9 5 18 10 WNW 1027,5 49 0,0
09.08.2020 08:00:00 8,5 5,8 7 4 14 8 W 1027,8 50 0,0
09.08.2020 07:00:00 7,2 6,9 4 2 8 5 WSW 1028,0 39 0,0
09.08.2020 06:00:00 3,2 2,9 0 0 - - N 1028,8 20 0,0
09.08.2020 05:00:00 3,2 2,8 2 1 5 3 E 1028,6 23 0,0
09.08.2020 04:00:00 5,3 5,0 0 0 14 8 N 1028,0 33 0,0
09.08.2020 03:00:00 3,7 3,3 3 2 9 5 N 1028,2 23 0,0
09.08.2020 02:00:00 4,8 4,4 3 2 16 8 WNW 1027,7 25 0,0
09.08.2020 01:00:00 4,9 4,2 4 2 11 6 SW 1027,5 27 0,0
09.08.2020 00:00:00 7,1 5,2 4 2 16 9 SSW 1026,7 38 0,0
08.08.2020 23:00:00 8,3 6,1 9 5 26 14 W 1025,9 50 0,0
08.08.2020 22:00:00 8,8 6,6 10 6 30 16 W 1025,3 48 0,0
08.08.2020 21:00:00 9,5 8,3 7 4 41 22 WNW 1024,7 12 0,0
08.08.2020 20:00:00 10,5 9,1 22 12 50 27 WNW 1023,3 45 0,0
08.08.2020 19:00:00 11,2 10,1 28 15 57 31 WNW 1022,2 45 0,1
08.08.2020 18:00:00 13,1 11,8 25 14 46 25 WNW 1020,8 50 0,2
08.08.2020 17:00:00 14,0 13,7 23 12 59 32 WNW 1019,3 6 2,2
08.08.2020 16:00:00 22,8 13,3 12 6 38 21 SSW 1014,8 47 0,0
08.08.2020 15:00:00 20,9 12,6 18 10 36 20 SSW 1015,6 50 0,0
08.08.2020 14:00:00 20,1 12,6 20 11 38 20 S 1016,0 50 0,0
08.08.2020 13:00:00 20,4 12,4 10 6 30 16 S 1016,4 50 0,0
08.08.2020 12:00:00 20,3 12,8 16 8 34 18 SSW 1016,4 50 0,0
08.08.2020 11:00:00 20,8 12,7 10 6 27 15 SSW 1016,2 47 0,0
08.08.2020 10:00:00 18,3 11,8 12 6 37 20 SSW 1017,5 50 0,0
08.08.2020 09:00:00 18,3 12,7 14 8 32 17 SSW 1017,4 50 0,0
08.08.2020 08:00:00 16,9 12,4 15 8 29 16 SSW 1018,3 50 0,0
08.08.2020 07:00:00 15,0 11,4 7 4 20 11 SSW 1019,2 50 0,0

tt = Température de l'air
td = dewpoint
ff = Vitesse du vent
fx = gusts
dd = Direction du vent
ppp = reduced air pressure
vv = visibility
rr = Quantités de précipitations

stations d'obs. à proximité